Regional Weather Roundup
Issued by NWS Sioux Falls, SD

Home | Current Version | Previous Version | Text Only | Print | Product List | Glossary Off
Versions: 1 2 3 4 5 6 7 8 9 10 11 12 13 14 15 16 17 18 19 20 21 22 23 24 25 26 27 28 29 30 31 32 33 34 35 36 37 38 39 40 41 42 43 44 45 46 47 48 49 50

000
ASUS43 KFSD 041502
RWRFSD

WEATHER ROUNDUP FOR SE SOUTH DAKOTA/SW MINNESOTA/NW IOWA
NATIONAL WEATHER SERVICE SIOUX FALLS SD
1000 AM CDT WED MAY 04 2016

NOTE: "FAIR" INDICATES FEW OR NO CLOUDS BELOW 12,000 FEET WITH NO
SIGNIFICANT WEATHER AND OR OBSTRUCTIONS TO VISIBILITY.


SDZ038>040-050-052>070-041600-
SOUTHEAST SOUTH DAKOTA

CITY           SKY/WX    TMP DP  RH WIND       PRES   REMARKS
BROOKINGS      SUNNY     54  35  48 N5        30.08S
CHAMBERLAIN    NOT AVBL
HURON          SUNNY     54  37  52 N9        30.12S
MADISON        FAIR      54  36  50 N9        30.09S
MITCHELL       SUNNY     53  40  61 N7        30.13R
SIOUX FALLS    SUNNY     56  37  49 NE8       30.09R
WINNER         FAIR      57  37  47 NW5       30.15S
YANKTON        SUNNY     54  39  58 NW8       30.10R
$$

MNZ071-072-080-081-089-090-097-098-041600-
SOUTHWEST MINNESOTA

CITY           SKY/WX    TMP DP  RH WIND       PRES   REMARKS
FAIRMONT       SUNNY     54  32  43 N13       30.02S
JACKSON        SUNNY     54  34  47 N10G16    30.04S
LUVERNE        SUNNY     54  32  43 N8        30.08S
MARSHALL       SUNNY     54  36  50 NW8       30.07S
MONTEVIDEO     SUNNY     59  37  44 N8        30.08S
PIPESTONE      SUNNY     55  32  41 N7        30.07S
REDWOOD FALLS  SUNNY     57  31  37 N8        30.04S
TRACY          SUNNY     55  35  46 N9        30.06F
WINDOM         SUNNY     54  32  43 N7        30.05R
WORTHINGTON    SUNNY     52  35  52 N9        30.07R
$$

IAZ001>003-012>014-020>022-031-032-NEZ013-014-SDZ071-041600-
NORTHWEST IOWA

CITY           SKY/WX    TMP DP  RH WIND       PRES   REMARKS
DENISON        SUNNY     55  39  54 N12       30.02R
ESTHERVILLE    SUNNY     53  37  54 N13       30.03R
SIOUX CITY     SUNNY     58  38  47 N10       30.07R
SPENCER        SUNNY     54  35  48 N10       30.05R
STORM LAKE     SUNNY     54  36  50 N14       30.05R
$$

ABBREVIATIONS USED IN REMARKS
   TC - TEMPERATURE IN CELSIUS
  WCI - WIND CHILL INDEX
   HX - HEAT INDEX
  VSB - VISIBILITY




USA.gov is the U.S. government's official web portal to all federal, state and local government web resources and services.